Погода Баку

Погода Баку : погода сейчас, прогноз погоды и архив. Всё, что Вы хотите узнать о погоде Баку!

Поиск расширенной информации на нашем сайте:

Другие новости

Новости СМИ2

Главная страница сайта

Новости сайта

02.10.2013

Напоминаем, что на нашем новом сайте вы можете получить высокодетализированные прогнозы погоды по пунктам России, СНГ и мира (включающие важные для авиации метеовеличины, такие как направление и скорость ветра, видимость, явления погоды, количество и форма облачности, нижняя и верхняя граница облачности), а также ознакомиться с разнообразными материалами по авиационной метеорологии и подборкой полезных ссылок на эту тему.

Сайт Метеоцентр.Азия посвящён разработке технологий оптимизации авиаметеорологического обслуживания, включая проектирование и перспективное создание нескольких автоматизированных авиаметеорологических систем:
- система выпуска высокодетальных прогностических карт явлений погоды для нижнего воздушного пространства по России и ближнему зарубежью;
- система верификации прогнозов TAF (выпускаемых синоптиками официальных АМСГ РФ и ближнего зарубежья) и AUTOTAF (выпускаемых сайтом Метеоцентр.Азия) - выявление ошибок, онлайн-сопоставление с фактической погодой METAR, автоматическое внесение коррективов в прогнозы при резком отклонении фактической погоды от прогноза, подсчёт оправдываемости прогнозов по элементам и в целом;
- система обработки, анализа и отображения авиаметеорологической информации для применения провайдерами метеорологической информации.

Рекомендуем: Прямо из Китая капсулы kang xin - дешево!

Погода Баку - сегодня

Время (UTC), дата Ветер
(°,м/с) 
Видим.   Явления Облачность Т
(°С)
Тd
(°С)
f(%) Тe
(°С)
Pmin
(гПа)
dP
(гПа)
Po
(мм)
O2
(г/м3)
Тmin Tmax R s Состояние
почвы
09 23.05.17 170 (Ю) 7{15}  20000 м    3/3 600 м кучево-дожд. 
[Cb cap]
+22.6 +15.4 64 +32  1011.8  -1.1  753  277           
12 23.05.17 350 (С) 7{15}  20000 м    9/9 600 м кучево-дожд. 
[Cb cap]
+20.8 +14.1 65 +28  1011.1  753  279           
18 23.05.17 340 (С) 7{15}  20000 м    ясно 600 м 
+17.7 +13.6 77 +23  1013.1  0.4  755  283    +23.3       
21 23.05.17 340 (С) 7-15{18}  20000 м    6/6 600 м кучево-дожд. 
[Cb cap]
+17.5 +13 75 +22  1013.8  0.7  755  284           
00 24.05.17 340 (С) 7-15{18}  20000 м    ясно 
+16.4 +12 75 +20  1013.9  755  285           
06 24.05.17 340 (С) 6{14}  20000 м    9/3 600 м средняя, верхняя 
[Cu med, cong|Ac cast|Ci ing]
+22.4 +13.7 58 +29  1016  2.9  757  279           
09 24.05.17 330 (СЗ) 6{14}  20000 м    10/0 верхняя 
[Cs]
+21.4 +14.2 64 +29  1014.6  -1.4  756  280           
12 24.05.17 350 (С) 7{15}  20000 м    ясно 
+20.4 +13.8 66 +27  1014.1  -0.6  756  281           
18 24.05.17 350 (С) 7-14{16}  20000 м    9/4 600 м средняя 
[Cu med, cong|Ac cast]
+17.5 +12.5 72 +21  1015.9  2.2  757  284    +22.6       
03 25.05.17 330 (СЗ) 20000 м    6/4 600 м средняя 
[Cu med, cong|Ac trans]
+15.9 +12.1 78 +19  1018.9  1.8  759  287           
06 25.05.17 340 (С) 6-15{17}  20000 м    10/10 600 м кучево-дожд. 
[Cb cap]
+17.1 +10.5 65 +19  1019.1  0.1  759  286           
09 25.05.17 360 (С) 20000 м    10/10 600 м кучево-дожд. 
[Cb cap]
+19.7 +11.5 59 +23  1018.9  759  283           
12 25.05.17 360 (С) 20000 м    ясно 
+20.6 +11 54 +23  1019.3  0.5  760  283           
15 25.05.17 360 (С) 20000 м    4/0 средняя 
[Ac cast]
+17.5 +8.9 57 +18  1019.8  0.4  760  286           
18 25.05.17 340 (С) 20000 м    8/0 средняя 
[Ac cast]
+16.4 +9.5 64 +17  1020.1  0.2  760  287    +21.1       
21 25.05.17 320 (СЗ) 20000 м    6/0 средняя 
[Ac cast]
+16.7 +9.2 61 +17  1019.9  -0.2  760  287           
00 26.05.17 330 (СЗ) 20000 м    4/0 верхняя 
[Ci fib]
+16.2 +10.4 68 +18  1019.6  -0.3  760  287           
03 26.05.17 тихо ()   20000 м    10/10 600 м кучево-дожд. 
[Cb cap]
+17.1 +9.7 62 +18  1019.9  0.3  760  286           
06 26.05.17 040 (СВ) 20000 м    10/10 600 м кучево-дожд. 
[Cb cap]
+18.8 +11.5 63 +23  1021.2  1.4  761  285           
09 26.05.17 тихо ()   20000 м    6/4 600 м средняя 
[Cu med, cong|Ac trans]
+21.7 +11.8 53 +25  1019.6  -1.4  760  281           
12 26.05.17 170 (Ю) 20000 м    8/8 600 м кучево-дожд. 
[Cb cap]
+21.7 +12.5 56 +26  1018.2  -1.5  759  281           
15 26.05.17 160 (Ю) 20000 м    10/0 верхняя 
[Cs]
+19.8 +11.9 60 +25  1017.6  -0.6  758  283           
18 26.05.17 330 (СЗ) 20000 м    ясно 
+16 +13.5 85 +23  1018.5  1.3  759  286    +23       
21 26.05.17 330 (СЗ) 20000 м    ясно 
+14.9 +12.5 86 +20  1017.3  -1.2  758  287           
00 27.05.17 260 (З) 20000 м    ясно 
+14.9 +12.2 84 +20  1016.1  -1.2  757  287           
Время (UTC), дата Ветер
(°,м/с) 
Видим.   Явления Облачность Т
(°С)
Тd
(°С)
f(%) Тe
(°С)
Pmin
(гПа)
dP
(гПа)
Po
(мм)
O2
(г/м3)
Тmin Tmax R s Состояние
почвы

Для получения пояснительной информации подведите курсор к названию столбца.

ПОГОДА Баку - архив

Всё, что Вы хотите узнать о погоде Баку - удобно и подробно!

Выберите нужную дату (начиная с 1 января 2015* года) и нажмите кнопку "Найти".
Будут отображены архивные сводки погоды по пункту Баку, начиная с указанной даты.


Отображать данные в формате CSV (для использования в таблицах Excel)


Внимание! Наш архив погоды предназначен исключительно для личного некоммерческого использования в познавательных целях. Если Вам необходимы официальные справки о состоянии погоды (для производственных, юридических, коммерческих и т.п. целей), обращайтесь в органы Росгидромета.

*Примечание: данная дата относится к архиву по метеостанциям СССР (Россия, СНГ, Балтия).
Архив по метеостанциям Зарубежной Европы и Азии (кроме Китая) хранится 10 дней, по другим регионам земного шара (Китай, Африка, Америка, Австралия, Океания) - 1 день.

Баку - район местоположения метеостанции


Название, широта, долгота, высота метеостанции:
Баку (Дендропарк) 40.4°ш. 49.8°д. 61 м над ур. моря [Азербайджан]

Дополнительная информация

В oтличие oт бoльшинства пoгoдных сайтoв мы публикуем пoдрoбную метеoинфoрмацию в детальнoм прoфессиoнальнoм фoрмате.

Характеристики температуры и влажнoсти вoздуха измеряются на высoте 2 м в тени вдали oт зданий и деревьев.
Скoрoсть ветра измеряется на высoте 10 м (на урoвне рoста челoвека скoрoсть ветра ниже в 1.5-2 раза). Если метеoстанция нахoдится в гoрoде или в лесу, тo скoрoсть ветра занижена на 2-4 м/с пo сравнению с oткрытым местoм. Скoрoсть ветра над акватoриями крупных рек и oзёр, а также на вершинах хoлмoв на 2-5 м/с выше, чем в oбычных услoвиях.
Атмoсфернoе давление в разных тoчках местнoсти мoжет значительнo oтличаться oт давления на метеoстанции, в зависимoсти oт услoвий рельефа (при пoдъёме на 10 м давление пoнижается примернo на 1 мм рт.ст.).